Weather in Lindi

Tanzania     9°59′44″S   39°42′25″E
temp.,
°C
wind,
m/s
gust,
m/s
humid.,
%
clouds,
%
prec.,
mm/h
press.,
hPa
HPBL,
m
6 march, sat
sat600:00+26n378699 0.3 1010457
03:00+25nnw279299 3.4 1009417
06:00+23nnw2797100 2.1 1011362
09:00+24nw1395100 2.2 1013235
12:00+29n466675 0.0 10111149
15:00+29nne467164 0.1 1008979
18:00+26nne378319 0.2 1007514
21:00+25nne238912 0.2 1010137
7 march, sun
sun700:00+25nnw128986 0.0 1011128
03:00+24w129593 0.6 1010102
06:00+23wsw1196100 0.3 101039
09:00+24wsw1295100 0.3 101292
12:00+26w1390100 0.0 1011240
15:00+25wsw1192100 0.2 100895
18:00+25nne1292100 0.2 100892
21:00+24sw029499 0.3 1010107
8 march, mon
mon800:00+23wsw129597 0.5 1010113
03:00+23w119798 3.4 100951
06:00+23nw1198100 5.7 100947
09:00+25n259492 11.4 1011390
12:00+26nnw3693100 7.0 1010652
15:00+26nnw3584100 8.3 1008671
18:00+25n1289100 0.0 1008128
21:00+25nne1288100 0.5 101194
9 march, tue
tue900:00+24nw129699 5.4 1011102
03:00+23sw1299100 16.7 101055
06:00+23sw1299100 7.9 101171
09:00+23ene2399100 16.3 1013216
12:00+23n3696100 1.6 1013445
15:00+23sse0198100 2.6 1011116
18:00+23ssw0097100 0.1 101060
21:00+22w1197100 0.1 101248
10 march, wed
wed1000:00+22wsw119699 0.0 101248
03:00+21w119690 0.1 101134
06:00+22wsw129775 0.7 101246
09:00+24wsw129685 2.4 1014143
12:00+29n357767 0.3 1012943
15:00+27n369171 5.5 1009699
18:00+26nne259092 1.1 1009250
21:00+24n379174 1.1 1011268